Location: Clanezzo
(45.7500°N, 9.6000°E)
Time: 07:40:24
(UTC+00:00)

Gbstr 26 Del rocket - Pass Details

Date: 02 October 2021
Orbit: 492 x 1263 km, 51.8° (Epoch: 18 October)

Event Time Altitude Azimuth Distance (km) Brightness Sun altitude
Rises 20:42:17 0° 277° (W) 3,980 7.9 -37.2°
Reaches altitude 10° 20:45:01 10° 282° (WNW) 3,098 7.2 -37.5°
Enters shadow 20:52:11 55° 347° (NNW) 1,472 4.9 -38.4°
